Weather History for KLYH - September, 2012

Change the Weather History Date:

Sunday, September 2, 2012

  Actual Average Record
Temperature  
Mean Temperature 79 °F 72 °F  
Max Temperature 88 °F 83 °F 100 °F (1932)
Min Temperature 69 °F 61 °F 48 °F (1934)
Degree Days  
Heating Degree Days 0 0  
Month to date heating degree days 0 0  
Since 1 July heating degree days 0 3  
Cooling Degree Days 14 7  
Month to date cooling degree days 29 14  
Year to date cooling degree days 1148 912  
Growing Degree Days 28 (Base 50)    
Moisture  
Dew Point 69 °F    
Average Humidity 75    
Maximum Humidity 97    
Minimum Humidity 53    
Precipitation  
Precipitation 0.06 in 0.13 in 1.86 in (1910)
Month to date precipitation 0.06 0.26  
Year to date precipitation 22.61 28.19  
Snow  
Snow 0.00 in - - ()
Month to date snowfall 0.0  
Since 1 July snowfall 0.0  
Since 1 September snowfall 0.0  
Snow Depth 0.00 in    
Sea Level Pressure  
Sea Level Pressure 30.03 in    
Wind  
Wind Speed 2 mph (SSE)    
Max Wind Speed 14 mph    
Max Gust Speed 22 mph    
Visibility 10 miles    
Events Rain    
T = Trace of Precipitation, MM = Missing Value Source: NWS Daily Summary

Daily Weather History Graph

Daily Weather History Graph

Search for Another Location

Airport or City:

Trip Planner

Search our weather history database for the weather conditions in past years. The results will help you decide how hot, cold, wet, or windy it might be!

Date:

Astronomy

Sep. 02, 2012 Rise Set
Actual Time 6:48 AM EDT 7:43 PM EDT
Civil Twilight 6:21 AM EDT 8:10 PM EDT
Nautical Twilight 5:50 AM EDT 8:41 PM EDT
Astronomical Twilight 5:17 AM EDT 9:14 PM EDT
Moon 8:34 PM EDT (9/2) 8:51 AM EDT (9/2)
Length of Visible Light 13h 48m
Length of Day
12h 54m
Waning Gibbous, 95% of the Moon is Illuminated
Sep 2
Waning Gibbous
Sep 8
Last Quarter
Sep 15
New
Sep 22
First Quarter
Sep 29
Full

Hourly Weather History & Observations

Time (EDT) Temp. Heat Index Dew Point Humidity Pressure Visibility Wind Dir Wind Speed Gust Speed Precip Events Conditions
12:54 AM 72.0 °F - 68.0 °F 87% 30.06 in 10.0 mi Calm Calm - 0.00 in   Clear
1:54 AM 71.1 °F - 68.0 °F 90% 30.06 in 10.0 mi Calm Calm - N/A   Scattered Clouds
2:54 AM 71.1 °F - 68.0 °F 90% 30.05 in 10.0 mi Calm Calm - N/A   Clear
3:54 AM 71.6 °F - 68.0 °F 88% 30.07 in 10.0 mi Calm Calm - N/A   Clear
4:54 AM 71.1 °F - 68.0 °F 90% 30.03 in 10.0 mi Calm Calm - N/A   Clear
5:54 AM 70.0 °F - 68.0 °F 93% 30.03 in 10.0 mi Calm Calm - N/A   Partly Cloudy
6:54 AM 69.1 °F - 66.9 °F 93% 30.04 in 10.0 mi Calm Calm - N/A   Scattered Clouds
7:54 AM 72.0 °F - 68.0 °F 87% 30.05 in 10.0 mi Calm Calm - N/A   Mostly Cloudy
8:54 AM 75.0 °F - 70.0 °F 84% 30.06 in 10.0 mi Calm Calm - N/A   Overcast
9:54 AM 78.1 °F - 70.0 °F 76% 30.06 in 10.0 mi Calm Calm - N/A   Clear
10:54 AM 82.0 °F 84.9 °F 68.0 °F 62% 30.05 in 10.0 mi SW 3.5 mph - N/A   Clear
11:54 AM 84.9 °F 88.8 °F 69.1 °F 59% 30.04 in 10.0 mi Variable 3.5 mph - N/A   Clear
12:54 PM 87.1 °F 90.6 °F 68.0 °F 53% 30.02 in 10.0 mi Calm Calm - N/A   Partly Cloudy
1:54 PM 87.1 °F 90.6 °F 68.0 °F 53% 30.00 in 10.0 mi Calm Calm - N/A   Scattered Clouds
2:54 PM 81.0 °F 85.8 °F 73.0 °F 77% 29.99 in 10.0 mi NW 9.2 mph 16.1 mph 0.03 in Rain Light Rain
3:54 PM 77.0 °F - 70.0 °F 79% 29.97 in 10.0 mi Variable 3.5 mph - 0.00 in   Mostly Cloudy
4:54 PM 82.0 °F 86.3 °F 71.1 °F 69% 29.97 in 10.0 mi Variable 3.5 mph - N/A   Clear
5:54 PM 80.1 °F 83.2 °F 70.0 °F 71% 29.97 in 10.0 mi ESE 5.8 mph - N/A   Clear
6:54 PM 77.0 °F - 71.1 °F 82% 30.00 in 10.0 mi SE 4.6 mph - N/A   Clear
7:54 PM 75.0 °F - 70.0 °F 84% 29.99 in 10.0 mi ESE 3.5 mph - N/A   Partly Cloudy
8:54 PM 73.0 °F - 70.0 °F 90% 30.02 in 10.0 mi ESE 4.6 mph - 0.02 in Rain Light Rain
9:33 PM 73.4 °F - 69.8 °F 88% 30.06 in 10.0 mi Variable 6.9 mph - 0.00 in   Overcast
9:38 PM 71.6 °F - 69.8 °F 94% 30.06 in 10.0 mi ENE 3.5 mph - 0.00 in Rain Light Rain
9:54 PM 72.0 °F - 70.0 °F 93% 30.04 in 10.0 mi SSE 5.8 mph - 0.00 in Rain Light Rain
10:47 PM 71.6 °F - 69.8 °F 94% 30.06 in 10.0 mi SSW 5.8 mph - 0.01 in   Scattered Clouds
10:54 PM 72.0 °F - 69.1 °F 91% 30.03 in 10.0 mi SSW 4.6 mph - 0.01 in   Mostly Cloudy
11:54 PM 70.0 °F - 66.9 °F 90% 30.01 in 10.0 mi Calm Calm - N/A   Clear